Precipitable_Water
2.05 2.25 2.07 2.04 2.09 2.09 2.06 1.99 1.96 1.89 1.74 1.49 1.41 1.32 1.29 1.27 1.19 1.15 1.15 1.18 1.17 1.24 1.36 1.44 1.64 2.02 2.04 1.99 1.99 2.00 1.91 1.86 1.68 1.75 1.85 1.84 1.75 1.68 1.67 1.73 1.88 1.84 1.83
1.96 2.15 2.16 1.85 2.10 1.93 1.92 1.89 1.85 1.65 1.59 1.52 1.42 1.36 1.32 1.26 1.28 1.20 1.04 1.01 0.98 0.89 0.85 1.02 1.20 1.50 1.74 1.99 2.04 1.93 1.85 1.85 1.72 1.61 1.74 1.76 1.75 1.76 1.77 1.82 1.84 1.82 1.81
1.63 1.95 1.74 2.20 2.04 1.87 1.84 1.75 1.61 1.48 1.39 1.37 1.40 1.36 1.33 1.26 1.18 1.14 1.10 1.01 0.97 0.93 0.94 0.96 0.98 1.07 1.20 1.49 1.68 1.84 1.99 1.90 1.71 1.68 1.66 1.80 1.79 1.80 1.76 1.84 1.89 1.92 1.90
1.80 1.95 1.97 1.84 1.78 1.71 1.62 1.42 1.31 1.29 1.18 1.12 1.09 1.05 1.06 1.05 1.01 0.97 0.97 0.98 0.97 0.96 1.03 1.08 1.06 1.01 0.98 1.07 1.30 1.49 1.72 1.82 1.83 1.71 1.63 1.66 1.78 1.80 1.81 1.69 1.73 1.91 1.86
1.84 1.88 1.76 1.66 1.54 1.36 1.20 1.14 1.14 1.14 1.08 1.10 1.06 1.03 1.04 1.08 1.04 0.95 0.87 0.82 0.91 0.94 1.01 1.01 1.03 1.04 1.01 0.98 0.98 1.04 1.28 1.53 1.71 1.74 1.64 1.59 1.66 1.72 1.63 1.71 1.68 1.76 1.81
1.57 1.46 1.40 1.33 1.35 1.28 1.23 1.18 1.18 1.16 1.13 1.11 1.11 1.07 0.99 0.93 0.84 0.77 0.77 0.80 0.80 0.91 0.93 1.03 1.03 0.99 0.99 0.97 0.89 0.93 1.00 1.12 1.37 1.57 1.53 1.55 1.61 1.72 1.79 1.72 1.61 1.59 1.53
1.37 1.28 1.25 1.26 1.23 1.22 1.22 1.18 1.17 1.11 1.11 1.07 1.05 0.99 0.91 0.86 0.88 0.84 0.79 0.81 0.86 0.82 0.90 0.99 1.03 1.05 1.03 0.98 0.93 0.93 0.92 1.00 1.25 1.43 1.51 1.42 1.58 1.83 1.84 1.74 1.68 1.64 1.59
1.15 1.16 1.17 1.18 1.17 1.20 1.20 1.16 1.10 1.09 1.07 1.05 1.03 0.98 0.94 0.91 0.88 0.81 0.80 0.86 0.86 0.89 0.86 0.95 1.01 1.02 1.06 1.04 0.98 0.90 0.83 0.94 0.97 1.20 1.47 1.63 1.78 1.90 1.92 1.88 1.84 1.87 1.95
1.16 1.18 1.20 1.21 1.20 1.18 1.10 1.04 1.07 1.04 1.00 0.97 0.96 0.90 0.86 0.82 0.80 0.75 0.84 0.91 0.94 0.90 0.92 0.93 1.00 1.06 1.07 1.11 1.06 0.94 0.86 0.81 1.03 1.05 1.10 1.35 1.70 1.85 1.99 1.96 1.78 1.76 1.68
1.13 1.11 1.13 1.12 1.04 0.98 0.96 0.91 0.91 0.90 0.86 0.85 0.79 0.82 0.82 0.78 0.76 0.75 0.86 0.90 0.92 0.98 1.00 0.97 1.01 1.07 1.12 1.13 1.04 0.99 0.88 0.85 0.86 0.95 1.01 0.98 1.10 1.31 1.62 1.85 1.88 1.70 1.78
1.01 0.94 0.82 0.73 0.65 0.61 0.60 0.61 0.62 0.61 0.61 0.61 0.62 0.68 0.72 0.75 0.74 0.80 0.82 0.83 0.86 0.94 1.02 1.01 1.02 1.05 1.09 1.10 1.11 1.07 1.04 1.07 0.99 1.02 1.02 1.02 1.00 1.05 1.16 1.40 1.59 1.64 1.65
0.61 0.54 0.52 0.51 0.52 0.55 0.57 0.59 0.60 0.61 0.61 0.63 0.65 0.67 0.73 0.76 0.80 0.81 0.82 0.84 0.88 0.92 0.99 1.10 1.13 1.13 1.07 1.03 1.06 1.11 1.16 1.16 1.07 1.04 1.02 0.99 0.99 0.98 1.05 1.17 1.28 1.36 1.49
0.48 0.46 0.46 0.48 0.48 0.48 0.45 0.44 0.43 0.46 0.46 0.45 0.47 0.48 0.52 0.66 0.76 0.79 0.86 0.86 0.86 0.92 1.02 1.09 1.13 1.16 1.12 1.03 1.01 0.99 1.03 1.04 1.07 0.98 0.98 0.96 1.02 1.12 1.21 1.18 1.15 1.17 1.23
0.43 0.41 0.41 0.38 0.38 0.39 0.41 0.42 0.41 0.40 0.39 0.39 0.40 0.40 0.43 0.46 0.47 0.61 0.74 0.82 0.84 0.86 0.99 1.06 1.10 1.11 1.14 1.06 0.96 0.97 1.01 1.00 0.98 0.99 1.02 1.01 1.08 1.08 1.05 1.10 1.05 1.01 1.00
0.37 0.38 0.38 0.38 0.38 0.37 0.39 0.40 0.41 0.45 0.47 0.45 0.46 0.47 0.46 0.44 0.47 0.51 0.52 0.64 0.78 0.82 0.89 0.96 0.98 1.04 1.03 0.98 0.96 0.96 0.93 0.95 0.92 0.98 1.02 1.05 1.02 1.01 0.98 1.02 1.00 1.00 0.92
0.39 0.40 0.40 0.40 0.41 0.42 0.42 0.42 0.49 0.49 0.50 0.52 0.53 0.55 0.59 0.59 0.58 0.56 0.59 0.60 0.64 0.77 0.80 0.80 0.85 0.92 0.94 0.91 0.92 0.93 0.93 0.86 0.90 0.96 1.02 1.01 0.99 0.98 0.97 1.04 1.09 1.01 0.90
0.44 0.45 0.45 0.42 0.41 0.41 0.43 0.43 0.40 0.46 0.53 0.57 0.60 0.60 0.59 0.58 0.64 0.66 0.66 0.62 0.60 0.60 0.63 0.72 0.76 0.85 0.89 0.90 0.93 0.91 0.87 0.86 0.90 0.95 1.04 1.02 1.00 0.98 1.00 1.04 1.08 1.06 0.98
0.49 0.51 0.47 0.43 0.43 0.43 0.45 0.47 0.48 0.47 0.48 0.54 0.66 0.69 0.73 0.72 0.67 0.65 0.66 0.62 0.55 0.54 0.55 0.59 0.72 0.78 0.84 0.88 0.90 0.88 0.87 0.86 0.91 0.93 0.96 1.03 1.04 1.03 0.98 1.02 1.08 1.07 1.02
0.49 0.49 0.46 0.45 0.46 0.46 0.48 0.52 0.54 0.56 0.58 0.67 0.76 0.82 0.84 0.85 0.82 0.83 0.76 0.65 0.58 0.55 0.56 0.57 0.70 0.81 0.80 0.87 0.92 0.94 0.95 0.93 0.96 0.97 0.97 1.01 1.01 1.03 1.01 1.02 1.03 1.08 1.06
0.48 0.50 0.47 0.45 0.45 0.45 0.49 0.54 0.57 0.62 0.69 0.79 0.79 0.79 0.80 0.79 0.75 0.76 0.79 0.77 0.69 0.65 0.65 0.64 0.67 0.78 0.85 0.85 0.90 0.97 1.01 1.01 1.02 1.03 1.03 1.05 1.04 1.05 1.02 1.00 1.03 1.02 1.04
0.49 0.46 0.45 0.45 0.45 0.46 0.51 0.57 0.62 0.69 0.79 0.82 0.81 0.82 0.75 0.68 0.66 0.70 0.74 0.77 0.75 0.76 0.70 0.66 0.68 0.79 0.88 0.93 0.94 0.96 0.98 1.00 1.03 1.07 1.08 1.07 1.06 1.03 1.07 1.06 1.03 1.04 1.04
0.48 0.44 0.43 0.43 0.45 0.46 0.51 0.61 0.66 0.79 0.85 0.85 0.86 0.86 0.83 0.77 0.70 0.65 0.65 0.72 0.76 0.77 0.79 0.77 0.78 0.87 0.96 0.99 1.02 1.03 1.03 1.02 1.01 1.04 1.07 1.07 1.06 1.05 1.05 1.04 1.02 0.99 0.96
0.46 0.44 0.43 0.43 0.44 0.46 0.53 0.64 0.73 0.84 0.85 0.87 0.89 0.90 0.90 0.89 0.85 0.85 0.78 0.73 0.76 0.79 0.83 0.84 0.85 0.90 0.98 1.03 1.07 1.09 1.08 1.08 1.09 1.11 1.11 1.10 1.10 1.08 1.06 1.03 1.03 1.00 0.97
0.45 0.43 0.41 0.41 0.43 0.49 0.58 0.69 0.80 0.86 0.85 0.87 0.91 0.93 0.92 0.91 0.91 0.90 0.91 0.90 0.86 0.87 0.91 0.93 0.95 0.95 0.97 1.01 1.04 1.09 1.12 1.18 1.18 1.18 1.21 1.18 1.17 1.16 1.10 1.08 1.08 1.06 1.03
0.42 0.40 0.39 0.41 0.47 0.55 0.68 0.77 0.83 0.84 0.83 0.87 0.89 0.88 0.90 0.92 0.93 0.93 0.94 0.97 0.99 0.95 0.96 0.97 0.98 0.97 0.98 0.97 0.98 1.00 1.09 1.13 1.18 1.22 1.17 1.19 1.23 1.23 1.18 1.13 1.12 1.11 1.08
0.39 0.38 0.41 0.46 0.52 0.62 0.75 0.82 0.84 0.83 0.85 0.86 0.86 0.87 0.90 0.92 0.95 0.96 0.97 0.96 0.99 1.01 0.98 0.98 0.98 0.99 1.00 1.03 1.06 1.08 1.10 1.12 1.15 1.22 1.19 1.19 1.21 1.25 1.26 1.18 1.15 1.15 1.13
Wind_Speed
21 27 25 21 18 13 11 10 9 8 8 8 9 11 13 13 14 15 16 17 17 18 18 19 19 20 20 21 20 20 20 20 18 18 21 21 20 20 21 23 24 23 23
22 14 21 17 14 11 11 10 9 10 11 12 13 15 17 18 19 19 20 20 21 21 22 22 21 20 20 20 20 21 21 21 21 22 22 24 23 22 23 22 24 24 24
21 14 11 15 11 9 9 9 10 12 14 16 17 19 21 22 23 23 24 24 24 24 23 22 23 22 22 21 21 22 22 23 22 25 25 25 25 25 25 25 25 26 25
12 9 7 7 7 8 9 12 14 17 19 21 22 23 25 26 26 27 27 27 27 26 26 25 25 25 26 26 25 24 25 25 24 23 27 29 28 28 28 28 27 27 28
14 12 9 8 10 11 13 17 20 23 24 25 26 27 28 29 29 31 32 32 31 30 29 29 28 27 27 28 29 28 27 27 27 26 25 27 30 29 29 29 29 30 31
9 12 13 15 17 18 20 23 25 27 29 30 31 31 32 32 33 34 34 34 34 33 33 32 31 31 30 29 29 30 30 29 29 28 28 26 31 30 33 32 32 30 29
13 15 18 20 21 23 25 28 30 31 32 33 34 34 35 35 36 35 36 36 35 35 35 35 35 34 33 31 31 30 31 31 32 30 30 27 26 30 29 32 32 33 35
17 19 21 23 25 26 28 30 31 32 33 33 35 36 37 38 38 38 38 37 37 37 36 36 37 37 36 34 34 33 32 31 32 32 33 32 31 29 29 31 32 33 33
18 21 22 25 26 27 29 31 32 33 34 35 37 38 40 40 40 39 37 37 37 38 38 38 38 38 37 37 37 35 34 33 33 33 34 34 34 33 32 31 31 31 32
22 24 26 28 29 30 31 32 33 35 37 38 40 41 42 42 41 39 38 38 38 37 37 38 38 38 38 38 38 37 36 34 34 34 33 34 36 37 36 35 33 33 33
26 28 29 30 30 32 33 35 36 38 40 41 42 43 43 43 42 41 40 40 40 38 37 37 37 38 38 38 38 38 37 36 35 35 34 34 35 36 36 37 37 36 34
28 28 28 29 30 32 33 34 36 37 39 39 40 40 40 40 41 42 41 41 41 40 38 36 37 36 36 36 36 37 38 37 37 36 36 35 34 35 35 36 37 38 38
27 27 28 29 30 32 34 36 37 38 39 39 39 39 39 38 37 37 38 38 38 38 38 36 35 34 35 36 36 36 36 37 38 38 37 36 35 35 35 35 36 36 37
25 26 28 30 32 34 36 38 39 40 40 40 40 40 39 39 37 36 36 37 37 38 39 39 38 38 39 39 38 38 38 39 38 39 39 39 38 37 37 36 36 36 36
25 28 30 32 35 38 39 40 41 41 42 43 43 43 42 40 39 39 38 38 37 37 37 39 40 39 38 38 38 38 38 40 41 41 40 40 39 38 38 37 37 36 36
27 29 32 34 37 39 41 42 42 43 43 43 44 44 44 44 43 42 40 38 37 37 36 36 37 37 37 37 37 37 38 40 41 41 42 41 40 38 37 36 36 36 36
28 30 32 35 37 40 42 43 44 43 42 43 44 45 47 48 44 41 40 39 38 37 37 36 36 36 36 36 36 37 37 38 39 41 41 40 40 39 37 35 34 34 34
29 31 33 35 38 42 44 44 43 43 44 45 43 43 43 43 45 45 42 40 40 39 38 37 36 35 35 35 34 34 34 35 35 36 37 39 39 38 38 36 35 33 33
30 31 34 37 40 42 44 43 43 43 44 42 40 39 38 38 38 38 40 40 38 37 37 37 35 34 35 35 33 32 31 31 31 32 33 35 35 37 38 38 37 36 34
30 33 36 38 40 42 43 44 44 41 40 37 37 37 34 33 32 33 34 35 36 35 34 33 32 31 31 31 31 30 30 29 29 30 31 32 33 34 36 37 37 36 35
31 34 36 38 40 42 44 44 42 39 36 34 34 33 31 29 28 28 28 31 32 32 33 32 32 31 30 29 29 29 29 29 29 29 29 30 31 32 33 35 36 36 36
32 35 37 38 41 42 44 43 39 36 33 32 32 31 29 27 25 25 24 24 26 27 28 29 29 28 27 27 26 28 29 29 29 30 30 30 30 31 32 32 33 35 34
33 35 37 39 40 43 44 40 36 32 31 31 30 28 26 24 23 22 21 19 20 22 24 25 27 27 26 26 27 26 25 26 28 29 30 30 30 31 32 32 32 32 33
34 36 37 39 40 42 41 37 33 30 30 29 28 26 24 23 22 20 18 17 16 17 20 22 24 25 26 26 27 27 26 25 24 26 29 30 29 29 30 30 30 31 32
34 35 37 38 39 41 37 34 31 29 28 28 26 25 24 22 21 20 18 17 16 15 17 19 22 23 25 27 27 28 28 28 27 28 29 29 30 30 30 30 30 30 30
33 35 36 36 39 37 34 30 28 26 27 27 26 24 23 22 22 21 20 18 17 17 17 18 20 23 24 25 26 27 27 27 26 26 28 30 30 30 30 30 30 28 29
Wind_Direction
246 237 228 223 221 232 240 247 250 258 265 268 280 288 293 295 296 296 294 293 289 286 282 280 277 273 270 261 259 259 254 251 251 247 237 238 241 241 234 234 236 235 233
290 278 227 211 218 224 238 241 247 264 273 277 284 287 291 293 294 294 293 291 289 287 283 279 276 275 273 269 263 257 256 253 252 250 244 241 243 243 238 241 235 235 234
283 284 191 201 216 222 234 254 266 274 280 284 286 288 289 291 291 291 290 288 287 285 282 278 275 272 271 270 268 264 259 257 259 252 247 245 245 244 243 241 239 237 237
259 270 242 235 233 240 257 272 278 282 285 287 287 287 288 289 289 289 288 286 284 280 278 276 275 272 269 268 267 265 262 259 257 258 251 250 246 244 245 242 242 239 238
268 263 269 272 272 274 276 280 283 286 287 287 287 288 288 287 287 288 286 284 281 278 274 273 272 272 270 267 265 264 263 260 258 257 259 256 244 245 243 242 242 242 241
268 276 282 284 280 282 282 284 285 286 287 287 287 287 287 287 288 287 285 282 278 275 272 271 270 269 269 268 266 263 262 259 258 257 255 257 248 251 244 243 242 242 245
289 292 289 288 288 288 287 287 287 287 287 287 287 288 288 288 287 286 285 281 278 273 271 269 268 267 266 266 265 264 263 259 256 255 254 253 253 247 246 243 243 244 245
290 293 294 292 291 291 290 290 290 290 289 289 290 289 289 288 288 287 285 280 276 273 270 268 266 265 264 264 263 263 262 260 257 255 253 253 253 252 248 247 246 247 247
290 291 292 292 291 292 292 293 291 291 291 291 290 290 288 287 287 287 284 281 277 273 270 267 264 263 261 261 261 262 261 259 258 256 254 253 252 251 249 248 246 247 247
293 293 293 293 294 294 295 295 295 294 293 292 291 289 288 286 285 283 281 280 277 275 271 266 263 261 259 259 260 260 260 258 257 257 257 255 252 250 248 248 247 247 249
296 297 298 299 300 299 298 298 297 296 295 294 292 290 288 286 284 281 279 277 275 273 270 266 263 260 258 258 257 258 258 258 257 256 256 256 253 249 247 247 248 248 249
300 301 302 303 303 303 302 301 300 300 298 296 295 294 292 289 285 281 278 275 274 269 268 265 261 258 257 256 256 257 257 257 256 255 255 254 252 249 248 247 247 250 251
303 305 306 306 306 306 305 304 303 301 299 298 296 295 294 293 289 285 280 275 273 269 265 263 257 257 257 257 257 258 258 257 256 254 253 252 251 250 248 249 250 251 252
303 306 308 308 308 308 307 306 304 303 301 299 297 295 293 290 288 285 281 278 276 271 265 261 260 259 257 258 259 259 259 258 256 254 252 251 250 249 248 249 251 251 252
304 306 309 310 310 309 308 307 305 303 301 298 296 293 290 288 286 283 280 278 275 272 268 262 259 258 257 257 257 258 260 258 256 253 251 249 247 247 248 248 250 251 252
306 309 311 312 312 312 311 308 305 303 300 298 296 292 289 286 285 281 278 276 273 271 267 262 259 257 256 256 257 259 260 260 256 253 249 247 245 245 246 247 248 248 250
307 309 311 313 315 315 314 311 308 306 302 300 298 294 290 286 283 279 274 272 271 270 266 263 258 257 257 257 258 260 262 260 255 250 246 244 243 242 243 244 245 247 249
306 308 311 313 316 317 317 314 310 308 306 305 303 299 293 287 282 276 272 272 270 266 264 261 258 257 255 256 259 261 261 257 252 247 244 242 241 240 241 242 244 246 247
308 310 312 314 316 317 318 316 313 310 309 308 307 305 300 292 287 277 273 270 267 264 261 257 255 255 255 255 257 257 256 253 248 245 243 241 242 240 241 242 244 245 248
310 311 313 315 317 318 319 318 316 313 312 311 311 310 307 302 293 284 276 269 266 261 257 256 254 254 254 254 253 252 251 249 247 245 244 244 243 242 242 242 242 244 246
312 313 314 316 318 320 321 320 318 315 313 312 313 312 310 307 303 295 282 273 267 258 254 253 252 251 253 253 250 249 249 249 247 246 245 245 244 244 244 243 242 243 245
314 315 317 317 319 321 322 321 318 316 315 315 315 314 312 310 306 302 298 280 266 260 252 248 246 248 249 248 249 249 249 250 249 247 247 247 246 245 245 244 243 242 243
317 318 319 320 320 321 323 321 319 315 316 318 318 316 314 313 310 307 305 294 273 262 250 246 247 247 247 249 250 248 252 252 250 248 247 248 247 246 245 244 243 241 240
320 321 321 322 322 323 323 322 319 316 316 318 318 317 317 315 313 309 305 301 284 270 259 250 246 248 250 249 250 249 250 251 254 252 248 247 247 245 242 242 241 240 240
324 325 325 325 325 326 325 324 322 319 318 320 320 317 315 313 313 309 305 298 290 281 267 255 252 251 252 252 251 251 251 252 254 255 252 249 244 243 242 241 241 239 237
327 327 328 328 330 330 328 327 326 326 324 323 321 319 316 312 311 308 301 294 289 282 274 267 259 256 254 254 254 252 250 252 254 255 252 246 243 242 240 238 237 234 234